Regional Weather Roundup
Issued by NWS

Home | Current Version | Previous Version | Graphics & Text | Print | Product List | Glossary On
Versions: 1 2 3 4 5 6 7 8 9 10 11 12 13 14 15 16 17 18 19 20 21 22 23 24 25 26 27 28 29 30 31 32 33 34 35 36 37 38 39 40 41 42 43 44 45 46 47 48 49 50
000
ASUS43 KLMK 161310
RWRKY
KENTUCKY REGIONAL WEATHER ROUNDUP
NATIONAL WEATHER SERVICE LOUISVILLE KY
900 AM EDT TUE SEP 16 2014

NOTE "FAIR" INDICATES FEW OR NO CLOUDS BELOW 12,000 FEET
WITH NO SIGNIFICANT WEATHER AND/OR OBSTRUCTIONS TO VISIBILITY.

KYZ001>023-026-027-061>063-070>075-161400-
WESTERN AND SOUTH CENTRAL KENTUCKY

CITY           SKY/WX    TMP DP  RH WIND       PRES   REMARKS
PADUCAH        CLOUDY    63  55  75 N10       30.17R
HENDERSON      CLOUDY    59  54  82 N7        30.18R
OWENSBORO      CLOUDY    60  58  93 NW9       30.17R
HOPKINSVILLE   CLOUDY    63  63 100 N13G18    30.14S
BOWLING GREEN  CLOUDY    65  62  90 NW7       30.13R
GLASGOW        CLOUDY    65  65 100 CALM      30.13R FOG
$$

KYZ024-025-028>034-038-045-046-053-161400-
NORTH CENTRAL KENTUCKY

CITY           SKY/WX    TMP DP  RH WIND       PRES   REMARKS
LOUISVILLE/SDF CLOUDY    62  58  86 N12       30.14R
LOUISVILLE/LOU CLOUDY    61  58  90 N8        30.15R
FORT KNOX      CLOUDY    61  58  90 N9        30.13R
$$

KYZ035>037-039>044-047>052-055>060-089>105-161400-
NORTHEAST KENTUCKY

CITY           SKY/WX    TMP DP  RH WIND       PRES   REMARKS
LEXINGTON      CLOUDY    61  58  90 NE9       30.13R FOG
COVINGTON      CLOUDY    58  54  86 N10       30.16R
FRANKFORT      CLOUDY    60  58  92 N5        30.13S
$$

KYZ054-064>069-076>088-106>120-161400-
SOUTHEAST KENTUCKY

CITY           SKY/WX    TMP DP  RH WIND       PRES   REMARKS
JACKSON        FOG       62  61  96 CALM      30.12S VSB 1/4
LONDON         CLOUDY    66  61  84 W6        30.12S
SOMERSET       NOT AVBL
MIDDLESBORO    RAIN      67  64  89 CALM      30.12S
MONTICELLO     PTSUNNY   66  65  97 CALM      30.14S FOG
$$




USA.gov is the U.S. government's official web portal to all federal, state and local government web resources and services.